Regional Weather Roundup
Issued by NWS Mt. Holly, NJ

Home | Current Version | Previous Version | Text Only | Print | Product List | Glossary On
Versions: 1 2 3 4 5 6 7 8 9 10 11 12 13 14 15 16 17 18 19 20 21 22 23 24 25 26 27 28 29 30 31 32 33 34 35 36 37 38 39 40 41 42 43 44 45 46 47 48 49 50
000
ASUS41 KPHI 230212
RWRPHI

REGIONAL WEATHER ROUNDUP
NATIONAL WEATHER SERVICE MOUNT HOLLY NJ
1000 PM EDT FRI SEP 22 2017

NOTE:  "FAIR" INDICATES FEW OR NO CLOUDS BELOW 12,000 FEET WITH NO
SIGNIFICANT WEATHER AND/OR OBSTRUCTIONS TO VISIBILITY.

 * = STATION DOES NOT REPORT PRECIPITATION (E.G. RAIN, SNOW, ETC.)
        OR FOG.

NJZ015>026-230300-
SOUTHERN NEW JERSEY

CITY           SKY/WX    TMP DP  RH WIND       PRES   REMARKS
POMONA         CLOUDY    71  64  78 NW5       29.96R
WILDWOOD*      CLOUDY    73  68  84 NW3       29.97S
MILLVILLE      CLOUDY    71  63  75 W7        29.97R
WRIGHTSTOWN    MOCLDY    76  59  56 N10       29.95R
MOUNT HOLLY    MOCLDY    72  60  66 NW5       29.97R
TRENTON        CLOUDY    73  58  59 N6        29.98R

$$
NJZ001>014-230300-
NORTHERN NEW JERSEY

CITY           SKY/WX    TMP DP  RH WIND       PRES   REMARKS
SUSSEX         CLEAR     64  60  87 CALM      30.02S
ANDOVER*         N/A     63  60  90 CALM      30.03R
MORRISTOWN     PTCLDY    70  54  56 NE6       30.00R
NEWARK         PTCLDY    76  51  41 N14G25    29.97S
TETERBORO      CLEAR     75  52  44 N10       29.96S
CALDWELL       CLEAR     73  51  46 NE6       30.00R
ALLAIRE*       CLEAR     73  58  59 N9        29.98R
TOMS RIVER*    CLOUDY    71  61  70 NW6       29.97R

$$
PAZ043-044-047-054-055-060>062-066>071-230300-
EASTERN PENNSYLVANIA

CITY           SKY/WX    TMP DP  RH WIND       PRES   REMARKS
PHILADELPHIA   MOCLDY    73  56  54 NW7       29.98R
NORTH PHILA    MOCLDY    75  55  49 N8        30.00R
BLUE BELL*     CLEAR     63  59  88 CALM      30.01S
DOYLESTOWN     CLEAR     70  54  56 NE3       30.00R
QUAKERTOWN*    CLEAR     64  57  77 CALM      30.02S
PERKASIE*      FAIR      68  52  56 N3        30.02S
POTTSTOWN      CLEAR     68  52  56 NW5       30.02S
LANCASTER      CLOUDY    69  59  70 NW5       30.02S
COATESVILLE    PTCLDY    72  52  49 N6        30.04R
READING        CLEAR     66  60  81 CALM      30.02R
ALLENTOWN      CLEAR     70  51  51 N3        30.02R
MOUNT POCONO   CLEAR     64  45  49 N7        30.09R
HAZLETON       CLEAR     68  46  45 N6        30.12R
LEHIGHTON      FAIR      61  54  77 CALM      30.04R
WILKES BARRE   CLEAR     68  48  48 E7        30.07R

$$
DEZALL-MDZ008-012-015-019-020-230300-
DELAWARE AND EASTERN MARYLAND

CITY           SKY/WX    TMP DP  RH WIND       PRES   REMARKS
WILMINGTON     CLEAR     68  57  68 NW7       29.99S
DOVER          CLEAR     70  70 100 W6        29.99R
GEORGETOWN     PTCLDY    72  62  71 NW3       29.98S
EASTON         CLEAR     68  64  88 CALM      30.03R
ABERDEEN       CLEAR     63  63  98 CALM      30.00R
PATUXENT       MOCLDY    68  66  93 SW6       30.00R
OCEAN CITY     PTCLDY    69  65  86 NW5       29.98S
WALLOPS ISLAND PTCLDY    70  67  90 W7        29.99R
CAMBRIDGE      CLEAR     66  64  94 CALM      29.99S
SALISBURY      CLOUDY    67  66  97 CALM      29.98S

$$
PAZ001-021-NYZ056-072-MDZ011-DCZ001-230300-
OTHER NEARBY LOCATIONS

CITY           SKY/WX    TMP DP  RH WIND       PRES   REMARKS
HARRISBURG     PTCLDY    65  60  84 CALM      30.02R
WILLIAMSPORT   CLEAR     64  56  75 CALM      30.06R
BINGHAMTON     CLEAR     63  57  81 N8        30.11R
NEW YORK CITY  CLEAR     74  53  48 NE7       30.00S
BALTIMORE      CLOUDY    66  66 100 W3        30.00R
WASHINGTON DC  MOCLDY    76  71  85 CALM      30.01S

$$



USA.gov is the U.S. government's official web portal to all federal, state and local government web resources and services.